Miscellaneous Local Product
Issued by NWS North Platte, NE

Home | Current Version | Previous Version | Text Only | Print | Product List | Glossary On
Versions: 1 2 3 4 5 6 7 8 9 10 11 12 13 14 15 16 17 18 19 20 21 22 23 24 25 26 27 28 29 30 31 32 33 34 35 36 37 38 39 40 41 42 43 44 45 46 47 48 49 50
000
AXUS43 KLBF 302010
MISLBF


WESTERN AND NORTH CENTRAL NEBRASKA HOURLY WEATHER ROUNDUP
NATIONAL WEATHER SERVICE NORTH PLATTE NE
200 PM CST FRI JAN 30 2015

***STATIONS NOT REPORTING VARIABLES SUCH AS SKY/WEATHER OR
PRESSURE ARE PROVIDED BY THE NEBRASKA DEPARTMENT OF
ROADS...RAWS...AND APRS NETWORKS...AND ARE NOT UNDER
NATIONAL WEATHER SERVICE QUALITY CONTROL***

...OBSERVATIONS IN AND NEAR THE EASTERN PANHANDLE OF NEBRASKA...

CITY           SKY/WX    TMP DP  RH WIND       PRES   REMARKS
PINE RIDGE     PTSUNNY   49  24  37 NW9       30.12F
CHADRON        PTSUNNY   48  27  44 W3        30.14F
ALLIANCE       CLOUDY    47  24  40 CALM      30.13F
SIDNEY         CLOUDY    45  28  51 SW8       30.13F
WHITECLAY        N/A     46  22  39 W3          N/A
CRESCENT LAKE    N/A     45  26  46 S7          N/A
LISCO            N/A     48  22  36 SE5         N/A
LEWELLEN         N/A     50  26  39 S12         N/A
$$

...OBSERVATIONS IN NORTH CENTRAL NEBRASKA...

CITY           SKY/WX    TMP DP  RH WIND       PRES   REMARKS
VALENTINE      PTSUNNY   50  25  37 SW15      30.14F
THEDFORD       PTSUNNY   50  25  38 S13G20    30.17F
AINSWORTH      PTSUNNY   49  23  36 S16G22    30.15F
O`NEILL        PTSUNNY   44  28  52 S18G24    30.22F
ORD            PTSUNNY   43  25  49 S17G25    30.26F
BROKEN BOW     PTSUNNY   46  26  45 S17       30.22F
BROWNLEE         N/A     51  26  37 S17         N/A
VALENTINE NWR    N/A     48  23  37 S14         N/A
SPRINGVIEW       N/A     48  29  47 W6          N/A
HALSEY           N/A     49  23  35 S9G21       N/A
BREWSTER         N/A     48  23  37 S16         N/A
ROSE             N/A     48  29  48 SE13        N/A
NEWPORT          N/A     46  27  47 S17         N/A
SARGENT          N/A     45  28  50 S3G13       N/A
COMSTOCK         N/A     46  25  42 S12         N/A
CHAMBERS         N/A     44  27  50 S12G20      N/A
EWING            N/A     43  29  58 SW16G24     N/A
$$

...OBSERVATIONS IN SOUTHWEST NEBRASKA AND FAR NORTHEAST COLORADO...

CITY           SKY/WX    TMP DP  RH WIND       PRES   REMARKS
WRAY           FAIR      52  34  50 S18G25    30.15F
IMPERIAL       CLOUDY    53  31  42 S20       30.16F
OGALLALA       PTSUNNY   50  31  48 S14       30.15F
NORTH PLATTE   PTSUNNY   48  26  42 S12       30.19F
MCCOOK         CLOUDY    49  27  42 S13G22    30.23F
LEXINGTON      CLOUDY    46  28  48 S15       30.24F
BRADY            N/A     46  29  51 CALM        N/A
GOTHENBURG       N/A     46  25  44 S10         N/A
CALLAWAY         N/A     43  29  58 S20         N/A
$$

...NORTH PLATTE AREA...

CITY           SKY/WX    TMP DP  RH WIND       PRES   REMARKS
AIRPORT        PTSUNNY   48  26  42 S12       30.19F
DOWNTOWN         N/A     47  28  47 S8G17       N/A
$$

...SOME WEATHER OBSERVATIONS FROM AROUND THE REGION...

CITY           SKY/WX    TMP DP  RH WIND       PRES   REMARKS
DENVER         CLOUDY    45  27  49 NW5       30.11F
LARAMIE        CLOUDY    37  26  64 N8        30.13F WCI  31
CHEYENNE       CLOUDY    46  25  43 N15       30.11F
SCOTTSBLUFF    CLOUDY    41  28  60 NW6       30.14F
RAPID CITY     SUNNY     52  24  33 N18       30.13F
PIERRE         SUNNY     45  24  43 W6        30.13F
WINNER         FAIR      54  25  32 SW16      30.14F
SIOUX FALLS    PTSUNNY   36  26  67 S15G25    30.26F WCI  27
OMAHA          CLOUDY    35  22  58 S12       30.40F WCI  27
GRAND ISLAND   PTSUNNY   44  26  49 S21       30.32F
KANSAS CITY    CLOUDY    37  19  48 S7        30.46F WCI  32
WICHITA        CLOUDY    42  25  50 S7        30.43F
HAYS           CLOUDY    45  25  45 S20       30.33F
LIBERAL        CLOUDY    45  27  49 S17       30.34F
GOODLAND       CLOUDY    45  33  63 S21G29    30.19F
$$



USA.gov is the U.S. government's official web portal to all federal, state and local government web resources and services.